Date String (YYYY-MM-DD hh:mm:ss) UTC,Instrument flags,Ambient pressure (hPa),Sample flow (lpm),Bypass flow (lpm),Sample temperature (°C),Ambient temperature (°C),ASC tube jacket temperature (°C),LED temperature (°C),Box temperature (°C),Sample RH (%),Span deviation,Mass concentration (μg/m³),Mass concentration (μg/m³),Mass concentration (μg/m³)
DateTimeUTC,F1_M11,P_M11,Q1_M11,Q2_M11,T1_M11,T2_M11,T3_M11,T4_M11,T5_M11,U1_M11,ZSPAN_M11,X2_M11,X0_M11,X1_M11
2023-01-25 11:00:00,,0824.9,5.00,0.00,22.0,20.0,00.0,30.9,23.5,09.1,-001.0,0011.99,0019.48,0011.55
2023-01-25 11:01:00,,0824.9,5.00,0.00,22.1,21.3,00.0,30.9,23.8,09.0,-000.9,0011.94,0019.23,0011.47
2023-01-25 11:02:00,,0825.0,5.00,0.00,22.2,22.4,00.0,30.9,24.1,08.9,-001.0,0011.77,0018.68,0011.34
2023-01-25 11:03:00,,0825.0,5.00,0.00,22.3,22.6,00.0,31.0,24.2,08.9,-001.1,0011.62,0018.09,0011.22
2023-01-25 11:04:00,,0825.0,4.99,0.00,22.3,22.1,00.0,31.0,24.2,08.8,-001.3,0011.50,0017.54,0011.13
2023-01-25 11:05:00,,0825.0,5.00,0.00,22.3,21.8,00.0,31.0,24.1,08.9,-001.6,0011.46,0017.18,0011.08
2023-01-25 11:06:00,,0825.0,5.00,0.00,22.3,21.4,00.0,31.0,24.1,08.9,-001.6,0011.43,0016.46,0011.04
2023-01-25 11:07:00,,0825.0,5.00,0.00,22.3,21.2,00.0,31.0,24.0,08.9,-001.6,0011.36,0016.46,0010.96
2023-01-25 11:08:00,,0825.0,5.00,0.00,22.3,21.0,00.0,31.0,24.0,08.8,-001.7,0011.34,0016.47,0010.91
2023-01-25 11:09:00,,0825.0,4.99,0.00,22.3,20.9,00.0,31.0,24.0,08.8,-001.7,0011.27,0015.96,0010.86
2023-01-25 11:10:00,,0825.1,4.99,0.00,22.2,20.7,00.0,31.0,23.9,08.8,-001.7,0011.19,0015.62,0010.78
2023-01-25 11:11:00,,0825.1,4.99,0.00,22.2,20.7,00.0,31.0,23.9,08.9,-001.6,0011.17,0015.62,0010.75
2023-01-25 11:12:00,,0825.1,5.01,0.00,22.2,20.6,00.0,31.0,23.9,09.2,-001.8,0011.22,0015.56,0010.84
2023-01-25 11:13:00,,0825.1,4.99,0.00,22.2,20.5,00.0,31.0,23.9,09.3,-001.7,0011.31,0015.62,0010.94
2023-01-25 11:14:00,,0825.1,5.00,0.00,22.2,20.5,00.0,31.0,23.9,09.4,-001.6,0011.46,0015.87,0011.07
2023-01-25 11:15:00,,0825.1,4.99,0.00,22.2,20.5,00.0,31.0,23.9,09.3,-001.6,0011.61,0016.22,0011.19
2023-01-25 11:16:00,,0825.1,4.99,0.00,22.1,20.5,00.0,31.0,23.8,09.3,-001.5,0011.72,0016.41,0011.30
2023-01-25 11:17:00,,0825.1,5.02,0.00,22.2,21.1,00.0,31.0,23.9,09.2,-001.2,0011.76,0016.36,0011.37
2023-01-25 11:18:00,,0825.1,4.99,0.00,22.3,22.2,00.0,31.0,24.1,09.2,-001.0,0011.87,0016.46,0011.48
2023-01-25 11:19:00,,0825.2,5.00,0.00,22.4,22.5,00.0,31.0,24.3,09.1,-000.9,0011.98,0016.60,0011.60
2023-01-25 11:20:00,,0825.2,4.99,0.00,22.4,22.2,00.0,31.0,24.3,09.1,-000.9,0012.05,0016.66,0011.68
2023-01-25 11:21:00,,0825.1,4.99,0.00,22.4,21.9,00.0,31.1,24.2,09.0,-001.0,0012.13,0016.72,0011.78
2023-01-25 11:22:00,,0825.1,4.99,0.00,22.4,21.6,00.0,31.1,24.2,09.0,-001.1,0012.18,0016.78,0011.84
2023-01-25 11:23:00,,0825.1,5.00,0.00,22.4,21.4,00.0,31.1,24.2,09.0,-000.9,0012.16,0016.71,0011.82
2023-01-25 11:24:00,,0825.1,5.00,0.00,22.4,21.2,00.0,31.1,24.1,09.0,-001.0,0012.15,0016.66,0011.78
2023-01-25 11:25:00,,0825.1,5.00,0.00,22.4,21.1,00.0,31.1,24.1,09.0,-001.2,0012.10,0016.54,0011.74
2023-01-25 11:26:00,,0825.2,5.00,0.00,22.4,21.0,00.0,31.1,24.1,08.8,-001.2,0011.99,0016.33,0011.63
2023-01-25 11:27:00,,0825.2,4.99,0.00,22.3,21.0,00.0,31.1,24.1,08.6,-001.3,0011.82,0016.11,0011.44
2023-01-25 11:28:00,,0825.1,5.02,0.00,22.3,20.9,00.0,31.1,24.1,08.4,-001.3,0011.57,0016.00,0011.20
2023-01-25 11:29:00,,0825.1,4.99,0.00,22.3,20.9,00.0,31.1,24.1,08.4,-001.3,0011.32,0015.65,0010.96
2023-01-25 11:30:00,,0825.2,4.97,0.00,22.3,20.8,00.0,31.1,24.1,08.3,-001.4,0011.04,0015.27,0010.71
2023-01-25 11:31:00,,0825.2,5.01,0.00,22.3,20.8,00.0,31.1,24.0,08.3,-001.7,0010.81,0015.01,0010.46
2023-01-25 11:32:00,,0825.3,5.00,0.00,22.3,20.8,00.0,31.1,24.0,08.3,-001.7,0010.58,0014.73,0010.24
2023-01-25 11:33:00,,0825.3,5.01,0.00,22.3,20.7,00.0,31.1,24.0,08.4,-001.8,0010.41,0014.58,0010.05
2023-01-25 11:34:00,,0825.3,5.02,0.00,22.3,21.1,00.0,31.1,24.1,09.2,-002.0,0010.53,0015.71,0010.13
2023-01-25 11:35:00,,0825.3,5.00,0.00,22.4,22.1,00.0,31.1,24.3,09.0,-002.2,0010.60,0015.81,0010.22
2023-01-25 11:36:00,,0825.3,5.00,0.00,22.5,22.9,00.0,31.1,24.5,09.0,-002.0,0010.67,0015.92,0010.28
2023-01-25 11:37:00,,0825.3,4.99,0.00,22.6,22.8,00.0,31.1,24.6,09.0,-001.8,0010.81,0016.02,0010.41
2023-01-25 11:38:00,,0825.3,5.01,0.00,22.6,22.4,00.0,31.2,24.5,09.2,-001.8,0011.10,0016.31,0010.72
2023-01-25 11:39:00,,0825.3,5.00,0.00,22.6,22.0,00.0,31.2,24.4,09.2,-001.8,0011.47,0016.65,0011.10
2023-01-25 11:40:00,,0825.3,5.00,0.00,22.6,21.7,00.0,31.2,24.4,09.2,-001.8,0011.83,0017.16,0011.45
2023-01-25 11:41:00,,0825.3,4.99,0.00,22.6,21.5,00.0,31.2,24.3,09.3,-001.8,0012.26,0017.67,0011.87
2023-01-25 11:42:00,,0825.3,5.00,0.00,22.6,21.3,00.0,31.2,24.3,09.3,-001.6,0012.76,0018.29,0012.34
2023-01-25 11:43:00,,0825.4,5.02,0.00,22.5,21.2,00.0,31.2,24.2,09.3,-001.5,0013.17,0018.77,0012.75
2023-01-25 11:44:00,,0825.3,5.00,0.00,22.5,21.1,00.0,31.2,24.2,09.4,-001.5,0013.58,0019.08,0013.16
2023-01-25 11:45:00,,0825.4,5.00,0.00,22.5,21.0,00.0,31.2,24.2,09.4,-001.5,0013.68,0018.33,0013.29
2023-01-25 11:46:00,,0825.4,4.98,0.00,22.5,21.0,00.0,31.2,24.2,09.5,-001.4,0013.88,0019.70,0013.46
2023-01-25 11:47:00,,0825.4,4.99,0.00,22.5,20.9,00.0,31.2,24.2,09.5,-001.6,0014.08,0021.39,0013.60
2023-01-25 11:48:00,,0825.4,5.00,0.00,22.4,20.9,00.0,31.2,24.2,09.5,-001.4,0014.23,0022.52,0013.69
2023-01-25 11:49:00,,0825.4,5.00,0.00,22.4,20.8,00.0,31.2,24.2,09.5,-001.3,0014.29,0023.61,0013.66
2023-01-25 11:50:00,,0825.4,5.01,0.00,22.4,20.8,00.0,31.2,24.2,09.5,-001.2,0014.34,0023.82,0013.62
2023-01-25 11:51:00,,0825.4,5.00,0.00,22.4,20.9,00.0,31.2,24.1,09.5,-001.4,0014.40,0025.14,0013.60
2023-01-25 11:52:00,,0825.4,5.01,0.00,22.5,21.6,00.0,31.2,24.3,09.4,-001.5,0014.43,0026.96,0013.50
2023-01-25 11:53:00,,0825.4,5.00,0.00,22.5,22.5,00.0,31.2,24.5,09.4,-001.6,0014.39,0027.63,0013.37
2023-01-25 11:54:00,,0825.4,5.00,0.00,22.6,23.0,00.0,31.3,24.6,09.3,-001.7,0014.33,0028.53,0013.18
2023-01-25 11:55:00,,0825.5,4.99,0.00,22.7,22.6,00.0,31.3,24.6,09.3,-001.6,0014.31,0029.67,0013.02
2023-01-25 11:56:00,,0825.4,5.02,0.00,22.7,22.3,00.0,31.3,24.6,09.3,-001.4,0014.36,0029.80,0013.02
2023-01-25 11:57:00,,0825.5,5.00,0.00,22.7,21.9,00.0,31.3,24.5,09.4,-001.4,0014.40,0028.76,0013.01
2023-01-25 11:58:00,,0825.5,5.00,0.00,22.7,21.7,00.0,31.3,24.4,09.3,-001.5,0014.38,0029.31,0012.94
2023-01-25 11:59:00,,0825.5,5.01,0.00,22.6,21.5,00.0,31.4,24.4,09.2,-001.7,0014.36,0030.60,0012.77
